Wind_Speed
11 15 12 12 6 7 12 10 6 8 8 7 5 6 8 9 7 5 7 4 4 3 4 5 7 8 9 11 11 9 10 12 14 16 18 18 17 16 16 18 21 20 18 17 14 13 14 14 13
8 9 6 7 7 11 10 8 7 6 6 6 5 5 6 10 8 7 7 6 7 7 7 7 7 7 7 8 9 7 7 9 12 14 16 16 16 14 15 18 19 19 18 19 18 16 15 15 15
8 7 4 5 8 9 5 7 6 5 2 2 1 2 5 7 6 5 6 6 8 8 9 9 9 8 7 7 8 7 7 8 10 12 12 14 14 14 14 16 18 18 17 19 20 19 17 16 15
10 12 6 9 8 6 1 5 8 8 6 3 2 2 2 4 5 5 4 6 7 8 8 9 10 9 9 8 9 10 11 12 12 11 11 12 13 14 14 15 17 16 16 17 18 18 19 18 16
9 10 1 3 4 8 9 7 6 9 8 6 5 5 4 3 5 6 6 5 6 7 8 8 9 10 11 11 12 13 14 14 13 12 12 13 13 14 15 16 17 16 16 17 18 18 18 17 16
11 5 1 1 1 5 12 13 10 6 7 12 11 8 6 4 4 6 8 6 6 8 8 8 9 10 11 11 11 12 13 14 14 14 14 13 13 12 13 14 15 16 15 16 17 18 17 15 14
13 8 5 5 5 7 13 14 12 8 8 11 12 12 9 5 4 5 8 9 7 8 9 9 10 10 9 8 8 8 9 9 10 11 10 10 11 12 12 13 14 16 15 15 16 17 17 17 15
18 13 10 11 11 10 8 13 15 11 9 11 13 11 9 6 5 4 5 9 9 9 10 10 10 10 8 7 7 6 6 7 8 9 10 11 11 11 12 12 13 15 15 15 15 14 15 16 17
22 19 16 16 16 11 8 13 13 13 16 16 13 8 9 3 4 6 6 8 9 9 11 10 11 11 12 11 11 12 12 13 13 13 15 14 13 14 14 13 14 14 14 14 15 14 14 15 16
22 24 24 24 21 17 10 7 11 18 23 21 11 13 9 8 8 9 10 11 14 12 13 15 15 15 16 17 19 19 20 20 20 20 20 20 18 18 20 19 19 19 18 18 18 17 16 17 18
21 25 28 27 21 14 9 11 15 22 27 26 23 19 14 18 17 14 13 12 16 19 20 21 22 22 22 22 23 24 24 23 23 25 25 26 25 24 25 25 25 25 24 23 20 19 18 19 21
22 26 27 25 21 11 11 13 16 25 29 31 31 27 20 19 19 21 22 20 20 22 24 25 25 26 27 26 27 28 29 28 29 29 29 29 28 27 27 28 29 30 31 30 28 24 21 22 23
26 28 27 25 22 17 15 16 18 28 36 38 38 34 27 22 20 22 24 26 26 26 26 27 30 32 33 32 32 32 33 35 37 36 35 35 35 33 31 31 32 33 34 33 33 31 27 27 27
30 29 27 25 24 24 26 27 28 32 38 39 40 40 39 34 29 27 27 29 31 29 30 30 33 35 37 37 37 37 38 39 39 39 39 39 39 37 36 35 34 34 34 34 33 34 34 34 32
33 32 30 28 29 29 33 32 33 36 36 37 37 36 35 36 37 38 36 33 32 32 33 36 38 38 39 41 42 42 42 41 41 41 41 40 38 37 37 37 38 37 36 36 35 36 36 37 37
32 32 32 31 32 32 35 33 34 32 32 31 32 33 34 38 40 42 40 37 34 32 34 36 38 41 42 43 43 44 43 42 44 43 40 38 37 36 35 37 38 37 38 37 38 39 38 40 41
30 28 28 27 30 30 31 28 29 25 26 26 29 31 34 36 34 37 37 37 34 31 33 36 37 38 37 38 39 40 41 41 41 40 39 40 38 37 37 38 38 39 40 42 43 42 41 40 43
25 21 18 20 20 21 20 20 22 26 28 29 31 33 32 28 24 31 36 38 38 35 34 35 35 36 37 37 39 40 41 41 39 39 40 41 42 41 40 41 43 43 42 43 44 43 42 43 45
14 14 13 15 15 15 17 20 23 27 31 32 34 33 29 29 25 29 32 33 36 38 38 37 35 34 36 37 39 40 41 42 42 41 41 42 43 42 41 40 40 41 41 41 42 43 43 44 45
13 18 21 22 21 22 26 27 29 32 34 34 35 32 29 27 27 29 32 39 40 36 36 36 36 34 35 36 37 37 37 38 39 39 40 39 39 40 40 41 41 42 41 40 41 42 42 42 42
16 20 24 29 26 26 28 29 32 32 33 35 34 31 28 28 27 29 37 41 36 32 33 33 33 33 35 37 37 36 35 34 34 35 35 35 35 35 36 38 40 41 41 41 42 42 43 43 42
21 23 22 25 30 32 32 33 34 35 36 32 30 28 26 28 29 34 37 36 34 35 38 38 38 36 35 36 37 37 37 37 37 36 36 37 37 37 36 37 39 40 42 44 44 44 45 45 44
19 19 21 21 23 30 35 39 34 32 29 25 25 25 26 25 29 32 32 31 32 36 38 40 44 44 42 40 39 39 40 40 40 40 39 38 38 39 39 40 41 43 45 45 45 46 47 47 46
9 7 10 14 17 21 23 26 22 22 20 22 23 24 28 29 33 34 35 34 31 31 31 32 36 39 41 43 43 42 42 42 42 41 40 40 40 40 40 40 41 43 44 44 45 47 48 47 46
9 7 4 6 11 16 16 17 17 18 18 20 24 28 32 33 35 37 33 30 28 29 31 32 34 36 38 41 43 44 44 44 45 44 43 42 41 41 40 41 42 42 43 43 42 43 44 44 46
11 9 8 7 9 13 16 18 17 19 23 26 29 30 30 31 30 31 32 33 33 34 35 35 34 33 34 37 39 41 43 44 44 45 46 45 44 43 43 42 43 42 42 41 41 41 42 44 48
10 9 8 9 9 9 17 21 19 21 23 25 26 26 25 25 28 32 34 34 34 36 38 38 35 35 35 36 37 39 40 42 43 44 45 45 45 45 45 44 42 42 41 40 41 39 35 36 39
8 9 12 11 11 12 14 18 22 22 24 24 25 26 28 29 30 31 31 31 32 34 35 36 35 35 36 37 37 37 38 39 39 40 41 42 41 41 42 42 42 42 41 40 37 31 29 29 28
8 9 10 12 14 15 12 10 15 20 24 26 27 28 29 31 32 33 34 34 34 34 37 37 37 39 39 38 37 37 37 36 37 37 37 38 39 39 40 41 42 42 38 32 27 25 24 22 20
12 14 16 16 19 23 22 12 18 24 27 30 31 33 35 37 39 39 39 39 37 35 36 37 36 38 40 39 37 38 37 35 33 33 34 34 33 34 37 37 37 35 32 30 26 19 20 21 20
Wind_Direction
136 138 119 61 62 99 96 93 72 50 54 54 51 50 41 50 53 5 18 358 345 351 9 19 14 19 28 33 37 45 36 27 27 25 21 16 17 18 19 16 14 12 15 17 18 18 23 21 14
153 149 129 68 97 107 71 80 68 57 61 61 46 40 42 52 43 12 24 11 2 357 355 358 1 6 15 19 24 30 19 17 19 18 15 12 12 11 8 7 8 10 13 17 16 13 17 19 15
164 132 126 125 106 115 60 59 49 26 17 60 59 27 20 37 31 4 25 16 23 7 3 359 359 359 3 11 14 7 356 356 359 2 2 0 3 1 357 358 3 6 7 8 11 10 7 7 8
156 118 114 163 132 111 103 63 34 336 318 279 266 292 351 1 344 329 357 13 16 12 8 2 353 348 347 352 354 348 346 342 341 343 344 345 350 351 351 351 354 357 355 355 356 0 1 359 358
181 149 80 169 138 45 6 360 20 331 321 302 291 304 315 330 323 316 315 343 349 350 347 343 334 331 331 334 336 339 342 340 339 337 336 338 345 347 346 347 345 340 336 338 341 341 346 351 352
188 163 272 255 316 27 342 340 349 342 355 312 289 288 299 322 322 315 308 315 341 338 332 330 325 323 329 341 347 348 348 347 344 340 338 341 348 350 349 350 345 338 332 326 325 325 328 331 334
173 134 177 183 115 63 328 325 318 295 270 280 277 294 311 325 303 291 298 301 314 315 318 320 322 322 326 334 336 344 350 353 355 352 351 352 348 342 335 333 331 329 328 327 323 318 314 317 317
175 167 205 182 160 125 271 284 289 300 298 298 314 317 323 353 345 311 303 305 310 304 307 311 308 303 305 307 303 313 318 324 328 326 324 324 331 328 324 323 317 316 319 325 325 323 317 316 313
185 187 207 207 202 193 233 286 295 289 297 310 337 12 338 337 5 339 325 318 318 316 312 310 304 297 295 296 299 302 302 303 302 301 303 304 306 305 304 306 305 302 304 314 319 320 311 308 310
195 201 214 229 241 256 241 258 296 301 302 308 313 319 338 297 336 331 318 318 314 309 301 300 299 297 298 300 303 304 304 305 300 295 293 296 297 295 294 292 293 294 293 296 303 308 305 299 298
205 207 222 232 247 274 260 237 274 295 302 303 299 295 296 290 314 318 305 302 303 299 293 290 293 295 296 298 299 298 299 300 299 297 295 295 297 297 293 291 289 289 289 290 293 296 297 296 297
214 211 224 237 245 254 261 261 275 288 291 287 287 295 305 306 317 318 309 300 294 291 292 294 290 287 287 289 288 287 289 291 293 292 291 292 290 288 284 282 283 286 292 294 293 290 285 288 290
229 227 232 243 256 263 262 265 269 279 281 287 294 298 296 299 302 292 288 287 284 284 286 288 287 285 284 285 284 284 285 287 289 287 287 288 288 288 285 280 281 283 285 287 288 289 285 283 283
245 245 244 247 254 258 260 262 267 269 279 289 296 302 305 304 296 283 277 277 280 283 284 283 280 279 281 282 281 282 282 283 284 285 285 286 286 285 283 280 278 276 278 281 284 285 283 279 279
249 254 256 255 255 260 263 266 270 274 278 285 291 296 300 304 304 301 295 290 287 284 282 281 280 279 278 279 279 278 277 279 281 283 283 282 281 278 278 278 277 278 277 275 275 276 277 276 276
249 252 256 257 257 256 261 267 269 274 282 288 293 298 302 305 307 303 301 301 298 292 286 282 280 280 280 281 282 282 281 282 283 284 281 278 277 274 274 276 272 274 277 277 276 276 274 275 277
243 245 249 252 257 258 260 265 273 280 287 291 292 291 294 298 302 296 297 297 296 292 287 285 283 283 283 282 281 282 283 284 284 284 282 281 278 275 274 272 271 271 272 274 275 276 277 277 280
237 239 241 247 252 259 266 277 283 284 284 285 284 283 287 289 292 294 298 300 302 301 293 286 283 282 283 283 283 283 283 282 281 281 281 281 280 278 275 270 271 272 273 277 278 278 277 277 279
227 221 211 238 241 247 248 248 255 267 277 285 289 291 292 296 303 301 301 296 302 304 300 293 287 282 279 278 278 279 279 279 280 278 278 277 277 278 277 275 271 271 275 279 278 278 280 281 282
209 217 211 226 235 236 236 246 255 264 274 285 289 289 289 293 300 303 306 301 301 298 296 295 294 292 288 285 283 283 282 280 279 279 280 280 280 279 276 274 273 274 277 278 279 280 282 284 285
228 235 222 221 233 247 254 261 271 280 286 290 289 288 284 284 292 299 308 305 297 296 295 292 291 293 295 294 291 288 286 284 284 284 285 285 284 282 279 276 276 278 279 279 279 280 282 284 283
249 256 253 240 236 241 252 259 263 269 275 281 286 286 289 295 295 305 308 307 294 296 300 297 295 295 296 295 293 291 288 286 285 286 285 286 287 286 284 281 281 284 286 287 285 284 283 283 283
264 267 264 258 249 244 244 253 263 265 268 268 270 279 293 301 295 302 306 307 300 295 298 298 298 299 298 295 293 292 291 289 288 288 287 286 287 288 287 287 287 287 287 287 287 288 288 286 282
292 287 272 271 265 257 251 253 257 268 274 280 287 296 301 303 304 307 309 308 306 307 308 303 298 295 293 291 288 286 286 287 288 287 286 285 284 286 286 286 287 287 285 284 282 284 285 285 284
298 311 320 302 272 271 273 270 262 266 269 280 289 298 304 310 312 312 310 310 311 310 309 309 309 309 304 296 291 288 285 283 283 284 285 285 285 286 285 286 289 291 290 287 284 281 282 282 281
293 313 323 299 279 266 265 268 283 281 282 292 299 302 305 308 309 313 318 322 326 325 327 327 323 318 311 305 299 296 293 289 287 285 285 284 284 287 288 288 289 289 289 286 283 280 279 279 276
297 321 333 323 304 266 257 274 284 290 298 303 301 300 305 314 323 326 325 327 330 329 329 331 332 330 326 319 311 306 303 298 293 291 290 289 287 286 286 288 288 287 287 285 285 281 274 273 273
286 285 303 306 309 285 277 286 290 297 304 309 317 320 324 326 325 320 322 326 325 323 321 327 332 332 332 327 319 315 308 302 297 294 294 294 293 290 287 286 285 285 286 284 281 273 270 274 273
320 302 307 308 308 308 308 324 297 297 302 307 314 317 318 318 317 318 323 323 321 319 315 318 319 323 326 324 323 324 317 305 297 293 292 293 293 289 285 284 284 287 285 279 275 273 265 262 255
321 310 304 303 304 311 309 311 297 298 299 304 311 315 317 316 316 314 312 310 308 306 305 309 313 315 314 318 321 324 322 313 304 299 295 291 290 290 289 289 289 289 282 268 268 244 248 237 228
Height
5935 5935 5935 5936 5937 5938 5936 5936 5934 5935 5937 5936 5936 5936 5936 5938 5937 5938 5937 5934 5934 5933 5933 5932 5932 5931 5931 5930 5930 5930 5930 5929 5929 5927 5926 5925 5924 5923 5921 5920 5918 5916 5914 5912 5911 5910 5908 5906 5905
5936 5936 5936 5938 5937 5937 5938 5935 5935 5935 5937 5938 5938 5938 5937 5937 5937 5936 5935 5935 5934 5934 5933 5933 5933 5932 5931 5931 5931 5930 5929 5929 5928 5927 5926 5925 5925 5924 5922 5921 5919 5918 5916 5913 5911 5910 5909 5907 5905
5935 5937 5938 5939 5937 5935 5936 5935 5935 5935 5936 5938 5939 5940 5939 5939 5938 5937 5937 5936 5935 5934 5933 5933 5933 5932 5932 5931 5930 5930 5929 5928 5928 5927 5926 5925 5924 5924 5923 5921 5920 5918 5917 5914 5912 5910 5909 5907 5905
5937 5939 5939 5938 5934 5934 5934 5934 5936 5935 5936 5936 5936 5937 5939 5939 5939 5937 5936 5936 5935 5934 5933 5933 5932 5932 5931 5930 5930 5929 5929 5928 5927 5927 5926 5925 5924 5924 5923 5921 5920 5918 5917 5915 5913 5911 5909 5907 5905
5938 5939 5938 5935 5932 5933 5933 5932 5934 5936 5936 5935 5934 5934 5937 5939 5937 5935 5935 5936 5935 5933 5933 5932 5932 5931 5931 5930 5929 5929 5928 5927 5926 5926 5926 5925 5924 5923 5922 5921 5919 5917 5916 5914 5912 5910 5908 5906 5904
5937 5938 5936 5932 5932 5932 5933 5933 5933 5935 5933 5933 5934 5933 5934 5939 5938 5936 5935 5935 5934 5932 5932 5931 5931 5930 5930 5929 5928 5928 5926 5925 5925 5925 5925 5924 5923 5922 5921 5919 5917 5915 5914 5912 5910 5908 5905 5904 5903
5937 5936 5932 5931 5932 5931 5933 5932 5933 5932 5932 5934 5934 5934 5935 5937 5938 5936 5933 5932 5933 5932 5931 5931 5930 5929 5928 5928 5927 5925 5924 5923 5922 5922 5922 5921 5921 5920 5919 5917 5915 5913 5911 5910 5908 5905 5903 5902 5900
5934 5934 5930 5929 5930 5933 5933 5933 5932 5930 5930 5931 5933 5936 5936 5935 5937 5936 5933 5930 5932 5931 5931 5930 5929 5928 5927 5926 5925 5924 5922 5921 5920 5919 5918 5918 5917 5917 5916 5914 5912 5910 5908 5906 5905 5903 5901 5898 5897
5932 5932 5928 5927 5928 5932 5933 5931 5931 5930 5930 5932 5934 5935 5937 5934 5934 5936 5936 5932 5931 5932 5930 5930 5929 5928 5927 5925 5924 5923 5921 5919 5918 5917 5916 5915 5914 5913 5911 5910 5909 5907 5904 5902 5901 5900 5898 5896 5894
5929 5929 5926 5925 5927 5929 5931 5931 5930 5929 5929 5931 5934 5934 5937 5936 5933 5934 5935 5933 5929 5929 5929 5929 5928 5927 5926 5924 5922 5920 5919 5917 5915 5914 5913 5912 5911 5909 5907 5906 5904 5902 5900 5898 5896 5895 5894 5893 5892
5926 5926 5925 5925 5927 5929 5930 5931 5929 5927 5925 5926 5928 5930 5933 5933 5931 5931 5932 5933 5930 5927 5925 5925 5925 5924 5923 5921 5918 5916 5915 5913 5912 5910 5908 5907 5906 5905 5902 5900 5899 5896 5895 5893 5892 5890 5889 5888 5887
5923 5923 5922 5924 5926 5928 5929 5930 5929 5922 5921 5918 5920 5925 5929 5928 5925 5924 5925 5927 5927 5925 5923 5920 5919 5919 5917 5916 5913 5911 5909 5907 5906 5904 5902 5901 5899 5898 5897 5894 5891 5889 5887 5886 5886 5885 5885 5883 5882
5920 5920 5921 5923 5925 5927 5927 5927 5926 5920 5913 5912 5913 5917 5922 5923 5923 5924 5923 5921 5920 5920 5918 5917 5915 5911 5909 5908 5906 5904 5902 5900 5898 5897 5895 5893 5892 5891 5889 5887 5885 5882 5881 5880 5878 5878 5878 5877 5875
5914 5916 5919 5922 5923 5923 5922 5921 5920 5916 5910 5909 5908 5907 5907 5910 5915 5917 5916 5914 5912 5910 5909 5908 5908 5906 5902 5899 5898 5897 5894 5891 5889 5888 5887 5885 5883 5881 5880 5878 5877 5876 5875 5873 5871 5870 5869 5868 5867
5910 5912 5915 5917 5917 5917 5914 5916 5914 5909 5910 5906 5904 5903 5901 5901 5902 5901 5901 5901 5900 5899 5898 5898 5897 5896 5894 5891 5889 5887 5884 5882 5881 5880 5878 5876 5875 5873 5872 5870 5868 5867 5865 5864 5862 5861 5860 5859 5859
5905 5906 5908 5910 5910 5909 5909 5909 5908 5905 5902 5900 5898 5899 5897 5895 5893 5890 5888 5888 5888 5888 5888 5888 5886 5884 5882 5880 5879 5875 5871 5870 5870 5869 5868 5867 5866 5864 5863 5862 5859 5857 5855 5854 5853 5851 5851 5850 5849
5898 5900 5901 5903 5903 5903 5903 5902 5901 5900 5899 5899 5899 5897 5895 5892 5890 5886 5883 5882 5882 5882 5880 5877 5875 5873 5871 5870 5868 5865 5863 5860 5859 5858 5856 5854 5854 5854 5853 5852 5848 5846 5845 5844 5843 5841 5841 5841 5840
5891 5894 5895 5896 5897 5897 5896 5896 5895 5895 5896 5895 5894 5894 5893 5891 5889 5882 5877 5874 5872 5872 5872 5870 5867 5866 5863 5861 5860 5856 5854 5852 5850 5849 5847 5844 5842 5841 5841 5841 5839 5837 5835 5833 5832 5831 5831 5830 5829
5889 5891 5892 5891 5890 5891 5890 5891 5890 5887 5886 5886 5886 5886 5886 5885 5883 5879 5875 5872 5868 5863 5860 5860 5860 5858 5855 5853 5851 5849 5846 5842 5840 5839 5837 5835 5832 5831 5829 5829 5828 5828 5826 5825 5823 5821 5821 5820 5818
5884 5885 5886 5887 5886 5886 5887 5887 5885 5885 5882 5879 5878 5877 5877 5875 5873 5870 5868 5865 5861 5857 5853 5850 5849 5848 5846 5844 5842 5839 5836 5833 5831 5828 5827 5825 5824 5821 5820 5818 5817 5817 5816 5815 5814 5812 5811 5810 5809
5880 5879 5881 5882 5882 5881 5882 5880 5878 5877 5875 5873 5872 5870 5869 5867 5865 5864 5861 5857 5854 5850 5847 5844 5842 5839 5835 5832 5830 5829 5827 5825 5822 5820 5818 5816 5814 5812 5810 5809 5807 5807 5806 5806 5805 5804 5802 5801 5800
5875 5875 5877 5878 5879 5878 5876 5873 5872 5871 5870 5869 5867 5863 5862 5863 5860 5858 5855 5851 5847 5843 5840 5837 5834 5832 5829 5825 5821 5819 5818 5815 5813 5812 5809 5806 5803 5801 5799 5799 5798 5796 5795 5794 5793 5791 5790 5790 5789
5870 5871 5870 5870 5871 5871 5871 5868 5869 5866 5864 5862 5860 5858 5858 5856 5854 5852 5850 5846 5841 5837 5834 5829 5825 5822 5819 5816 5812 5809 5807 5805 5803 5801 5799 5798 5795 5792 5790 5789 5787 5785 5784 5782 5781 5779 5778 5778 5777
5867 5866 5865 5864 5863 5863 5863 5863 5863 5859 5858 5856 5855 5853 5852 5850 5848 5845 5843 5838 5834 5830 5826 5822 5817 5813 5810 5806 5803 5800 5798 5795 5793 5792 5790 5789 5787 5784 5781 5779 5777 5774 5772 5771 5769 5767 5766 5765 5765
5864 5863 5862 5860 5858 5858 5857 5856 5857 5854 5852 5852 5850 5848 5845 5842 5839 5836 5834 5831 5828 5822 5818 5814 5810 5806 5801 5797 5793 5790 5787 5784 5783 5781 5780 5778 5776 5773 5770 5767 5764 5762 5760 5758 5757 5755 5754 5754 5754
5860 5860 5861 5859 5856 5854 5851 5849 5850 5849 5847 5845 5842 5840 5838 5837 5833 5828 5823 5820 5817 5813 5809 5805 5802 5798 5794 5789 5784 5779 5776 5773 5770 5768 5766 5765 5764 5761 5758 5755 5752 5750 5748 5746 5744 5743 5742 5741 5740
5858 5857 5857 5856 5853 5851 5848 5846 5846 5843 5841 5839 5838 5836 5834 5830 5825 5821 5817 5814 5810 5805 5801 5799 5795 5791 5786 5781 5775 5770 5766 5762 5759 5756 5754 5752 5751 5749 5746 5743 5740 5738 5737 5736 5733 5732 5730 5729 5728
5857 5857 5855 5853 5851 5849 5848 5844 5841 5838 5837 5835 5832 5829 5826 5822 5820 5816 5813 5809 5806 5803 5798 5794 5789 5785 5780 5774 5768 5764 5758 5752 5748 5746 5743 5740 5738 5736 5733 5731 5729 5727 5725 5724 5721 5720 5719 5719 5717
5856 5855 5853 5852 5850 5847 5845 5846 5839 5836 5834 5831 5827 5824 5820 5816 5813 5809 5806 5803 5800 5797 5792 5788 5784 5778 5773 5768 5762 5756 5751 5745 5740 5737 5734 5731 5727 5724 5722 5720 5716 5714 5713 5711 5709 5709 5709 5709 5710
5852 5850 5849 5848 5846 5842 5841 5845 5837 5832 5828 5825 5822 5819 5815 5810 5806 5802 5799 5796 5793 5789 5783 5779 5776 5770 5766 5761 5755 5749 5744 5738 5733 5729 5726 5723 5718 5715 5711 5708 5705 5703 5703 5702 5701 5701 5704 5706 5707